Regional Weather Roundup
Issued by NWS Sioux Falls, SD

Home | Current Version | Previous Version | Text Only | Print | Product List | Glossary Off
Versions: 1 2 3 4 5 6 7 8 9 10 11 12 13 14 15 16 17 18 19 20 21 22 23 24 25 26 27 28 29 30 31 32 33 34 35 36 37 38 39 40 41 42 43 44 45 46 47 48 49 50

000
ASUS43 KFSD 061202
RWRFSD

WEATHER ROUNDUP FOR SE SOUTH DAKOTA/SW MINNESOTA/NW IOWA
NATIONAL WEATHER SERVICE SIOUX FALLS SD
700 AM CDT MON JUL 06 2015

NOTE: "FAIR" INDICATES FEW OR NO CLOUDS BELOW 12,000 FEET WITH NO
SIGNIFICANT WEATHER AND OR OBSTRUCTIONS TO VISIBILITY.


SDZ038>040-050-052>070-061300-
SOUTHEAST SOUTH DAKOTA

CITY           SKY/WX    TMP DP  RH WIND       PRES   REMARKS
BROOKINGS      CLOUDY    66  63  88 N14       29.89R
CHAMBERLAIN    CLOUDY    64  60  88 N12       30.00R FOG
6HR MIN TEMP:  64; 6HR MAX TEMP:  67; 6HR PCP:  0.14;

HURON          CLOUDY    62  55  77 N14       29.93R HAZE
6HR MIN TEMP:  61; 6HR MAX TEMP:  70; 6HR PCP:  0.53;

MADISON        CLOUDY    64  64 100 N15G22    29.90R
MITCHELL       CLOUDY    67  64  90 N8        29.93R FOG
6HR MIN TEMP:  67; 6HR MAX TEMP:  71; 6HR PCP:  0.40;

SIOUX FALLS    LGT RAIN  68  68 100 NW3       29.88R VSB 1
6HR MIN TEMP:  68; 6HR MAX TEMP:  74; 6HR PCP:  1.58;

WINNER         CLOUDY    65  62  90 NW14      30.01R FOG
YANKTON        CLOUDY    70  66  88 S7        29.86R
$$

MNZ071-072-080-081-089-090-097-098-061300-
SOUTHWEST MINNESOTA

CITY           SKY/WX    TMP DP  RH WIND       PRES   REMARKS
FAIRMONT       CLOUDY    70  64  83 S6        29.82F
JACKSON        DRIZZLE   70  70 100 S6        29.83F
MARSHALL       CLOUDY    66  63  88 N13       29.83R
6HR MIN TEMP:  66; 6HR MAX TEMP:  70; 6HR PCP:  0.46;

PIPESTONE      CLOUDY    68  66  94 NE5       29.87R
REDWOOD FALLS  LGT RAIN  70  68  93 N8        29.82S FOG
TRACY          LGT RAIN  69  68  98 N16       29.82F
WINDOM         RAIN      70  68  94 CALM      29.81F
WORTHINGTON    CLOUDY    68  64  88 SE5       29.83S
$$

IAZ001>003-012>014-020>022-031-032-NEZ013-014-SDZ071-061300-
NORTHWEST IOWA

CITY           SKY/WX    TMP DP  RH WIND       PRES   REMARKS
DENISON        CLOUDY    70  68  94 CALM      29.82F
ESTHERVILLE    CLOUDY    69  67  93 SE6       29.81F
SIOUX CITY     LGT RAIN  71  69  93 CALM      29.87R
6HR MIN TEMP:  71; 6HR MAX TEMP:  81; 6HR PCP:  0.18;

SPENCER        LGT RAIN  70  66  87 S8        29.85R
6HR MIN TEMP:  69; 6HR MAX TEMP:  78; 6HR PCP:  0.63;

$$

ABBREVIATIONS USED IN REMARKS
   TC - TEMPERATURE IN CELSIUS
  WCI - WIND CHILL INDEX
   HX - HEAT INDEX
  VSB - VISIBILITY



USA.gov is the U.S. government's official web portal to all federal, state and local government web resources and services.